Regional Weather Roundup
Issued by NWS Northern Indiana

Home | Current Version | Previous Version | Text Only | Print | Product List | Glossary Off
Versions: 1 2 3 4 5 6 7 8 9 10 11 12 13 14 15 16 17 18 19 20 21 22 23 24 25 26 27 28 29 30 31 32 33 34 35 36 37 38 39 40 41 42 43 44 45 46 47 48 49 50

000
ASUS43 KIWX 020910
RWRIWX

KIWX WEATHER ROUNDUP
NATIONAL WEATHER SERVICE NORTHERN INDIANA
500 AM EDT TUE SEP 02 2014

NOTE: "FAIR" INDICATES FEW OR NO CLOUDS BELOW 12,000 FEET WITH NO
SIGNIFICANT WEATHER AND/OR OBSTRUCTIONS TO VISIBILITY.

* THESE STATIONS ARE NOT UNDER NWS QUALITY CONTROL. THEY ALSO MAY NOT
  REPORT WEATHER SUCH AS PRECIPITATION OR FOG.

INZ001>027-021000-
NORTHERN INDIANA

CITY           SKY/WX    TMP DP  RH WIND       PRES   REMARKS
GARY*          CLOUDY    72  67  86 SW3       29.88R
VALPARAISO     CLOUDY    68  66  93 SW8       29.89R
MICHIGAN CITY* CLOUDY    68  66  94 S5        29.88R
LAPORTE*       CLOUDY    67  67 100 S7        29.88S
KNOX*          CLOUDY    68  65  88 SW8       29.88S
SOUTH BEND     CLOUDY    70  66  87 S10       29.87S
GOSHEN         CLOUDY    70  65  84 SW9       29.88R
MONTICELLO*    LGT RAIN  66  66  97 S5        29.90F
LOGANSPORT*    DRIZZLE   66  63  88 SW6       29.92F
ROCHESTER*     RAIN      70  66  88 S8        29.91F
WARSAW*        CLOUDY    70  68  94 SW8       29.90S
ANGOLA*        PTCLDY    70  61  73 SW5       29.88F
FORT WAYNE     LGT RAIN  70  67  90 SW13      29.94R
HUNTINGTON*    RAIN      67  65  91 W12G22    29.94R
PERU/GRISSOM   LGT RAIN  68  68 100 S14       29.92F
MARION*        RAIN      68  67  98 W10G17    29.96R

$$
INZ028>050-021000-
CENTRAL INDIANA

CITY           SKY/WX    TMP DP  RH WIND       PRES   REMARKS
LAFAYETTE      CLOUDY    67  66  97 S5        29.91F
KOKOMO*        CLOUDY    70  64  83 SW10      29.95R
MUNCIE*        TSTM      70  67  90 W10G22    29.97R
INDIANAPOLIS   LGT RAIN  66  65  96 SW3       29.95F FOG

$$
MIZ043>046-050>051-056>058-064>065-071>073-077>080-021000-
SOUTHWEST LOWER MICHIGAN

CITY           SKY/WX    TMP DP  RH WIND       PRES   REMARKS
BATTLE CREEK   CLOUDY    70  66  87 SW6       29.87S
BENTON HARBOR  CLOUDY    69  67  93 NW5       29.86R
COLDWATER*     CLOUDY    69  67  93 W3        29.88R
HILLSDALE*     CLOUDY    71  68  92 SW5       29.89R
HOLLAND        CLOUDY    69  64  84 W3        29.85S
GRAND RAPIDS   CLOUDY    68  68 100 W7        29.85R
KALAMAZOO      CLOUDY    69  65  86 W3        29.85F
STURGIS*         N/A     68  66  94 SW5       29.87S
THREE RIVERS*  FAIR      69  66  90 SW3       29.87S

$$
OHZ001>008-015>018-024>025-021000-
NORTHWEST OHIO

CITY           SKY/WX    TMP DP  RH WIND       PRES   REMARKS
WAUSEON*       FAIR      68  66  94 SW8       29.89S
DEFIANCE       CLOUDY    70  65  84 SW6       29.89F
FINDLAY        MOCLDY    70  67  90 S6        29.90F
TOLEDO EXPRESS CLOUDY    70  65  84 SW5       29.87S
TOLEDO METCALF MOCLDY    70  65  84 SW8       29.89S
LIMA           CLOUDY    72  68  87 SW8       29.93F

$$
&&



USA.gov is the U.S. government's official web portal to all federal, state and local government web resources and services.